Year,Month,Day,Hour,Minute,Value (Times are PST for temperature in C)
2012,09,16,00,00,15.70
2012,09,16,00,01,15.70
2012,09,16,00,02,15.70
2012,09,16,00,03,15.60
2012,09,16,00,04,15.60
2012,09,16,00,05,15.60
2012,09,16,00,06,15.50
2012,09,16,00,07,15.50
2012,09,16,00,08,15.50
2012,09,16,00,09,15.50
2012,09,16,00,10,15.50
2012,09,16,00,11,15.60
2012,09,16,00,12,15.60
2012,09,16,00,13,15.60
2012,09,16,00,14,15.70
2012,09,16,00,15,15.70
2012,09,16,00,16,15.70
2012,09,16,00,17,15.70
2012,09,16,00,18,15.70
2012,09,16,00,19,15.70
2012,09,16,00,20,15.80
2012,09,16,00,21,15.80
2012,09,16,00,22,15.80
2012,09,16,00,23,15.70
2012,09,16,00,24,15.70
2012,09,16,00,25,15.70
2012,09,16,00,26,15.60
2012,09,16,00,27,15.60
2012,09,16,00,28,15.60
2012,09,16,00,29,15.60
2012,09,16,00,30,15.60
2012,09,16,00,31,15.60
2012,09,16,00,32,15.60
2012,09,16,00,33,15.60
2012,09,16,00,34,15.60
2012,09,16,00,35,15.60
2012,09,16,00,36,15.50
2012,09,16,00,37,15.50
2012,09,16,00,38,15.40
2012,09,16,00,39,15.40
2012,09,16,00,40,15.40
2012,09,16,00,41,15.40
2012,09,16,00,42,15.40
2012,09,16,00,43,15.40
2012,09,16,00,44,15.40
2012,09,16,00,45,15.40
2012,09,16,00,46,15.30
2012,09,16,00,47,15.30
2012,09,16,00,48,15.20
2012,09,16,00,49,15.20
2012,09,16,00,50,15.20
2012,09,16,00,51,15.20
2012,09,16,00,52,15.10
2012,09,16,00,53,15.10
2012,09,16,00,54,15.10
2012,09,16,00,55,15.00
2012,09,16,00,56,15.00
2012,09,16,00,57,14.90
2012,09,16,00,58,14.70
2012,09,16,00,59,14.60
2012,09,16,01,00,14.40
2012,09,16,01,01,14.40
2012,09,16,01,02,14.30
2012,09,16,01,03,14.20
2012,09,16,01,04,14.20
2012,09,16,01,05,14.10
2012,09,16,01,06,14.20
2012,09,16,01,07,14.20
2012,09,16,01,08,14.30
2012,09,16,01,09,14.40
2012,09,16,01,10,14.50
2012,09,16,01,11,14.60
2012,09,16,01,12,14.80
2012,09,16,01,13,14.90
2012,09,16,01,14,15.00
2012,09,16,01,15,15.10
2012,09,16,01,16,15.00
2012,09,16,01,17,15.00
2012,09,16,01,18,15.00
2012,09,16,01,19,15.00
2012,09,16,01,20,15.00
2012,09,16,01,21,15.10
2012,09,16,01,22,15.10
2012,09,16,01,23,15.10
2012,09,16,01,24,15.10
2012,09,16,01,25,15.10
2012,09,16,01,26,15.10
2012,09,16,01,27,15.20
2012,09,16,01,28,15.20
2012,09,16,01,29,15.10
2012,09,16,01,30,15.00
2012,09,16,01,31,14.90
2012,09,16,01,32,14.80
2012,09,16,01,33,14.70
2012,09,16,01,34,14.70
2012,09,16,01,35,14.60
2012,09,16,01,36,14.70
2012,09,16,01,37,14.80
2012,09,16,01,38,14.80
2012,09,16,01,39,14.70
2012,09,16,01,40,14.70
2012,09,16,01,41,14.70
2012,09,16,01,42,14.70
2012,09,16,01,43,14.60
2012,09,16,01,44,14.50
2012,09,16,01,45,14.50
2012,09,16,01,46,14.50
2012,09,16,01,47,14.50
2012,09,16,01,48,14.60
2012,09,16,01,49,14.60
2012,09,16,01,50,14.60
2012,09,16,01,51,14.70
2012,09,16,01,52,14.70
2012,09,16,01,53,14.80
2012,09,16,01,54,14.80
2012,09,16,01,55,14.80
2012,09,16,01,56,14.80
2012,09,16,01,57,14.80
2012,09,16,01,58,14.80
2012,09,16,01,59,14.80
2012,09,16,02,00,14.80
2012,09,16,02,01,14.80
2012,09,16,02,02,14.80
2012,09,16,02,03,14.80
2012,09,16,02,04,14.90
2012,09,16,02,05,14.90
2012,09,16,02,06,14.80
2012,09,16,02,07,14.70
2012,09,16,02,08,14.60
2012,09,16,02,09,14.50
2012,09,16,02,10,14.30
2012,09,16,02,11,14.20
2012,09,16,02,12,14.10
2012,09,16,02,13,14.00
2012,09,16,02,14,13.90
2012,09,16,02,15,13.80
2012,09,16,02,16,13.70
2012,09,16,02,17,13.60
2012,09,16,02,18,13.50
2012,09,16,02,19,13.40
2012,09,16,02,20,13.40
2012,09,16,02,21,13.30
2012,09,16,02,22,13.20
2012,09,16,02,23,13.10
2012,09,16,02,24,13.10
2012,09,16,02,25,13.00
2012,09,16,02,26,12.90
2012,09,16,02,27,12.90
2012,09,16,02,28,12.80
2012,09,16,02,29,12.70
2012,09,16,02,30,12.70
2012,09,16,02,31,12.60
2012,09,16,02,32,12.50
2012,09,16,02,33,12.40
2012,09,16,02,34,12.30
2012,09,16,02,35,12.20
2012,09,16,02,36,12.10
2012,09,16,02,37,12.00
2012,09,16,02,38,11.90
2012,09,16,02,39,11.80
2012,09,16,02,40,11.70
2012,09,16,02,41,11.70
2012,09,16,02,42,11.60
2012,09,16,02,43,11.50
2012,09,16,02,44,11.50
2012,09,16,02,45,11.40
2012,09,16,02,46,11.40
2012,09,16,02,47,11.40
2012,09,16,02,48,11.30
2012,09,16,02,49,11.30
2012,09,16,02,50,11.30
2012,09,16,02,51,11.20
2012,09,16,02,52,11.20
2012,09,16,02,53,11.10
2012,09,16,02,54,11.10
2012,09,16,02,55,11.00
2012,09,16,02,56,11.00
2012,09,16,02,57,10.90
2012,09,16,02,58,10.90
2012,09,16,02,59,10.80
2012,09,16,03,00,10.80
2012,09,16,03,01,10.80
2012,09,16,03,02,10.80
2012,09,16,03,03,10.70
2012,09,16,03,04,10.70
2012,09,16,03,05,10.70
2012,09,16,03,06,10.70
2012,09,16,03,07,10.60
2012,09,16,03,08,10.60
2012,09,16,03,09,10.60
2012,09,16,03,10,10.60
2012,09,16,03,11,10.50
2012,09,16,03,12,10.50
2012,09,16,03,13,10.40
2012,09,16,03,14,10.40
2012,09,16,03,15,10.40
2012,09,16,03,16,10.30
2012,09,16,03,17,10.30
2012,09,16,03,18,10.30
2012,09,16,03,19,10.30
2012,09,16,03,20,10.30
2012,09,16,03,21,10.20
2012,09,16,03,22,10.20
2012,09,16,03,23,10.20
2012,09,16,03,24,10.20
2012,09,16,03,25,10.10
2012,09,16,03,26,10.10
2012,09,16,03,27,10.10
2012,09,16,03,28,10.10
2012,09,16,03,29,10.10
2012,09,16,03,30,10.10
2012,09,16,03,31,10.10
2012,09,16,03,32,10.10
2012,09,16,03,33,10.10
2012,09,16,03,34,10.10
2012,09,16,03,35,10.10
2012,09,16,03,36,10.10
2012,09,16,03,37,10.10
2012,09,16,03,38,10.10
2012,09,16,03,39,10.10
2012,09,16,03,40,10.10
2012,09,16,03,41,10.10
2012,09,16,03,42,10.10
2012,09,16,03,43,10.10
2012,09,16,03,44,10.10
2012,09,16,03,45,10.20
2012,09,16,03,46,10.30
2012,09,16,03,47,10.30
2012,09,16,03,48,10.40
2012,09,16,03,49,10.40
2012,09,16,03,50,10.40
2012,09,16,03,51,10.50
2012,09,16,03,52,10.50
2012,09,16,03,53,10.60
2012,09,16,03,54,10.60
2012,09,16,03,55,10.70
2012,09,16,03,56,10.70
2012,09,16,03,57,10.70
2012,09,16,03,58,10.70
2012,09,16,03,59,10.70
2012,09,16,04,00,10.60
2012,09,16,04,01,10.60
2012,09,16,04,02,10.50
2012,09,16,04,03,10.50
2012,09,16,04,04,10.50
2012,09,16,04,05,10.40
2012,09,16,04,06,10.40
2012,09,16,04,07,10.40
2012,09,16,04,08,10.40
2012,09,16,04,09,10.40
2012,09,16,04,10,10.40
2012,09,16,04,11,10.40
2012,09,16,04,12,10.40
2012,09,16,04,13,10.30
2012,09,16,04,14,10.30
2012,09,16,04,15,10.30
2012,09,16,04,16,10.30
2012,09,16,04,17,10.20
2012,09,16,04,18,10.10
2012,09,16,04,19,10.10
2012,09,16,04,20,10.10
2012,09,16,04,21,10.00
2012,09,16,04,22,10.00
2012,09,16,04,23,10.00
2012,09,16,04,24,9.90
2012,09,16,04,25,9.90
2012,09,16,04,26,9.90
2012,09,16,04,27,9.80
2012,09,16,04,28,9.80
2012,09,16,04,29,9.80
2012,09,16,04,30,9.80
2012,09,16,04,31,9.80
2012,09,16,04,32,9.80
2012,09,16,04,33,9.70
2012,09,16,04,34,9.70
2012,09,16,04,35,9.70
2012,09,16,04,36,9.70
2012,09,16,04,37,9.70
2012,09,16,04,38,9.80
2012,09,16,04,39,9.80
2012,09,16,04,40,9.80
2012,09,16,04,41,9.80
2012,09,16,04,42,9.90
2012,09,16,04,43,9.90
2012,09,16,04,44,9.90
2012,09,16,04,45,9.90
2012,09,16,04,46,9.90
2012,09,16,04,47,9.90
2012,09,16,04,48,9.90
2012,09,16,04,49,9.90
2012,09,16,04,50,9.80
2012,09,16,04,51,9.80
2012,09,16,04,52,9.80
2012,09,16,04,53,9.80
2012,09,16,04,54,9.70
2012,09,16,04,55,9.70
2012,09,16,04,56,9.70
2012,09,16,04,57,9.70
2012,09,16,04,58,9.70
2012,09,16,04,59,9.70
2012,09,16,05,00,9.70
2012,09,16,05,01,9.70
2012,09,16,05,02,9.70
2012,09,16,05,03,9.60
2012,09,16,05,04,9.60
2012,09,16,05,05,9.60
2012,09,16,05,06,9.60
2012,09,16,05,07,9.50
2012,09,16,05,08,9.50
2012,09,16,05,09,9.50
2012,09,16,05,10,9.40
2012,09,16,05,11,9.40
2012,09,16,05,12,9.40
2012,09,16,05,13,9.40
2012,09,16,05,14,9.30
2012,09,16,05,15,9.30
2012,09,16,05,16,9.30
2012,09,16,05,17,9.30
2012,09,16,05,18,9.30
2012,09,16,05,19,9.20
2012,09,16,05,20,9.20
2012,09,16,05,21,9.20
2012,09,16,05,22,9.20
2012,09,16,05,23,9.20
2012,09,16,05,24,9.10
2012,09,16,05,25,9.10
2012,09,16,05,26,9.10
2012,09,16,05,27,9.00
2012,09,16,05,28,9.00
2012,09,16,05,29,9.00
2012,09,16,05,30,8.90
2012,09,16,05,31,8.90
2012,09,16,05,32,8.90
2012,09,16,05,33,8.90
2012,09,16,05,34,8.90
2012,09,16,05,35,8.80
2012,09,16,05,36,8.80
2012,09,16,05,37,8.80
2012,09,16,05,38,8.80
2012,09,16,05,39,8.80
2012,09,16,05,40,8.80
2012,09,16,05,41,8.70
2012,09,16,05,42,8.70
2012,09,16,05,43,8.70
2012,09,16,05,44,8.70
2012,09,16,05,45,8.70
2012,09,16,05,46,8.60
2012,09,16,05,47,8.60
2012,09,16,05,48,8.60
2012,09,16,05,49,8.60
2012,09,16,05,50,8.50
2012,09,16,05,51,8.50
2012,09,16,05,52,8.50
2012,09,16,05,53,8.50
2012,09,16,05,54,8.40
2012,09,16,05,55,8.40
2012,09,16,05,56,8.40
2012,09,16,05,57,8.50
2012,09,16,05,58,8.50
2012,09,16,05,59,8.50
2012,09,16,06,00,8.60
2012,09,16,06,01,8.60
2012,09,16,06,02,8.60
2012,09,16,06,03,8.60
2012,09,16,06,04,8.60
2012,09,16,06,05,8.70
2012,09,16,06,06,8.70
2012,09,16,06,07,8.70
2012,09,16,06,08,8.60
2012,09,16,06,09,8.60
2012,09,16,06,10,8.60
2012,09,16,06,11,8.50
2012,09,16,06,12,8.50
2012,09,16,06,13,8.40
2012,09,16,06,14,8.40
2012,09,16,06,15,8.40
2012,09,16,06,16,8.40
2012,09,16,06,17,8.30
2012,09,16,06,18,8.30
2012,09,16,06,19,8.30
2012,09,16,06,20,8.30
2012,09,16,06,21,8.40
2012,09,16,06,22,8.40
2012,09,16,06,23,8.30
2012,09,16,06,24,8.30
2012,09,16,06,25,8.30
2012,09,16,06,26,8.30
2012,09,16,06,27,8.30
2012,09,16,06,28,8.30
2012,09,16,06,29,8.30
2012,09,16,06,30,8.30
2012,09,16,06,31,8.30
2012,09,16,06,32,8.30
2012,09,16,06,33,8.30
2012,09,16,06,34,8.30
2012,09,16,06,35,8.20
2012,09,16,06,36,8.20
2012,09,16,06,37,8.20
2012,09,16,06,38,8.20
2012,09,16,06,39,8.20
2012,09,16,06,40,8.20
2012,09,16,06,41,8.10
2012,09,16,06,42,8.10
2012,09,16,06,43,8.10
2012,09,16,06,44,8.10
2012,09,16,06,45,8.00
2012,09,16,06,46,8.00
2012,09,16,06,47,7.90
2012,09,16,06,48,7.90
2012,09,16,06,49,7.80
2012,09,16,06,50,7.80
2012,09,16,06,51,7.80
2012,09,16,06,52,7.80
2012,09,16,06,53,7.80
2012,09,16,06,54,7.80
2012,09,16,06,55,7.80
2012,09,16,06,56,7.80
2012,09,16,06,57,7.80
2012,09,16,06,58,7.80
2012,09,16,06,59,7.80
2012,09,16,07,00,7.70
2012,09,16,07,01,7.70
2012,09,16,07,02,7.70
2012,09,16,07,03,7.70
2012,09,16,07,04,7.70
2012,09,16,07,05,7.70
2012,09,16,07,06,7.70
2012,09,16,07,07,7.70
2012,09,16,07,08,7.70
2012,09,16,07,09,7.70
2012,09,16,07,10,7.70
2012,09,16,07,11,7.70
2012,09,16,07,12,7.60
2012,09,16,07,13,7.60
2012,09,16,07,14,7.60
2012,09,16,07,15,7.60
2012,09,16,07,16,7.60
2012,09,16,07,17,7.60
2012,09,16,07,18,7.50
2012,09,16,07,19,7.50
2012,09,16,07,20,7.50
2012,09,16,07,21,7.50
2012,09,16,07,22,7.50
2012,09,16,07,23,7.50
2012,09,16,07,24,7.50
2012,09,16,07,25,7.50
2012,09,16,07,26,7.50
2012,09,16,07,27,7.50
2012,09,16,07,28,7.50
2012,09,16,07,29,7.50
2012,09,16,07,30,7.50
2012,09,16,07,31,7.50
2012,09,16,07,32,7.50
2012,09,16,07,33,7.50
2012,09,16,07,34,7.50
2012,09,16,07,35,7.50
2012,09,16,07,36,7.50
2012,09,16,07,37,7.50
2012,09,16,07,38,7.50
2012,09,16,07,39,7.50
2012,09,16,07,40,7.50
2012,09,16,07,41,7.50
2012,09,16,07,42,7.50
2012,09,16,07,43,7.50
2012,09,16,07,44,7.50
2012,09,16,07,45,7.50
2012,09,16,07,46,7.50
2012,09,16,07,47,7.50
2012,09,16,07,48,7.50
2012,09,16,07,49,7.50
2012,09,16,07,50,7.40
2012,09,16,07,51,7.40
2012,09,16,07,52,7.40
2012,09,16,07,53,7.40
2012,09,16,07,54,7.40
2012,09,16,07,55,7.40
2012,09,16,07,56,7.40
2012,09,16,07,57,7.40
2012,09,16,07,58,7.40
2012,09,16,07,59,7.40
2012,09,16,08,00,7.40
2012,09,16,08,01,7.40
2012,09,16,08,02,7.40
2012,09,16,08,03,7.40
2012,09,16,08,04,7.40
2012,09,16,08,05,7.40
2012,09,16,08,06,7.40
2012,09,16,08,07,7.40
2012,09,16,08,08,7.40
2012,09,16,08,09,7.40
2012,09,16,08,10,7.40
2012,09,16,08,11,7.40
2012,09,16,08,12,7.40
2012,09,16,08,13,7.40
2012,09,16,08,14,7.40
2012,09,16,08,15,7.40
2012,09,16,08,16,7.40
2012,09,16,08,17,7.40
2012,09,16,08,18,7.50
2012,09,16,08,19,7.50
2012,09,16,08,20,7.50
2012,09,16,08,21,7.50
2012,09,16,08,22,7.50
2012,09,16,08,23,7.50
2012,09,16,08,24,7.50
2012,09,16,08,25,7.50
2012,09,16,08,26,7.50
2012,09,16,08,27,7.50
2012,09,16,08,28,7.50
2012,09,16,08,29,7.50
2012,09,16,08,30,7.50
2012,09,16,08,31,7.40
2012,09,16,08,32,7.40
2012,09,16,08,33,7.40
2012,09,16,08,34,7.40
2012,09,16,08,35,7.40
2012,09,16,08,36,7.40
2012,09,16,08,37,7.40
2012,09,16,08,38,7.40
2012,09,16,08,39,7.40
2012,09,16,08,40,7.40
2012,09,16,08,41,7.40
2012,09,16,08,42,7.40
2012,09,16,08,43,7.40
2012,09,16,08,44,7.40
2012,09,16,08,45,7.40
2012,09,16,08,46,7.40
2012,09,16,08,47,7.40
2012,09,16,08,48,7.40
2012,09,16,08,49,7.50
2012,09,16,08,50,7.50
2012,09,16,08,51,7.50
2012,09,16,08,52,7.50
2012,09,16,08,53,7.50
2012,09,16,08,54,7.60
2012,09,16,08,55,7.60
2012,09,16,08,56,7.60
2012,09,16,08,57,7.60
2012,09,16,08,58,7.60
2012,09,16,08,59,7.60
2012,09,16,09,00,7.70
2012,09,16,09,01,7.70
2012,09,16,09,02,7.70
2012,09,16,09,03,7.70
2012,09,16,09,04,7.70
2012,09,16,09,05,7.70
2012,09,16,09,06,7.70
2012,09,16,09,07,7.80
2012,09,16,09,08,7.70
2012,09,16,09,09,7.70
2012,09,16,09,10,7.70
2012,09,16,09,11,7.70
2012,09,16,09,12,7.70
2012,09,16,09,13,7.70
2012,09,16,09,14,7.80
2012,09,16,09,15,7.80
2012,09,16,09,16,7.80
2012,09,16,09,17,7.80
2012,09,16,09,18,7.80
2012,09,16,09,19,7.80
2012,09,16,09,20,7.80
2012,09,16,09,21,7.80
2012,09,16,09,22,7.80
2012,09,16,09,23,7.80
2012,09,16,09,24,7.80
2012,09,16,09,25,7.80
2012,09,16,09,26,7.80
2012,09,16,09,27,7.80
2012,09,16,09,28,7.90
2012,09,16,09,29,7.90
2012,09,16,09,30,7.90
2012,09,16,09,31,7.90
2012,09,16,09,32,7.90
2012,09,16,09,33,7.90
2012,09,16,09,34,7.90
2012,09,16,09,35,7.90
2012,09,16,09,36,7.90
2012,09,16,09,37,7.90
2012,09,16,09,38,7.90
2012,09,16,09,39,7.90
2012,09,16,09,40,7.90
2012,09,16,09,41,7.90
2012,09,16,09,42,8.00
2012,09,16,09,43,8.00
2012,09,16,09,44,8.00
2012,09,16,09,45,8.00
2012,09,16,09,46,8.10
2012,09,16,09,47,8.10
2012,09,16,09,48,8.20
2012,09,16,09,49,8.20
2012,09,16,09,50,8.20
2012,09,16,09,51,8.20
2012,09,16,09,52,8.30
2012,09,16,09,53,8.30
2012,09,16,09,54,8.30
2012,09,16,09,55,8.30
2012,09,16,09,56,8.30
2012,09,16,09,57,8.30
2012,09,16,09,58,8.30
2012,09,16,09,59,8.40
2012,09,16,10,00,8.40
2012,09,16,10,01,8.50
2012,09,16,10,02,8.60
2012,09,16,10,03,8.60
2012,09,16,10,04,8.70
2012,09,16,10,05,8.70
2012,09,16,10,06,8.80
2012,09,16,10,07,8.80
2012,09,16,10,08,8.80
2012,09,16,10,09,8.90
2012,09,16,10,10,8.90
2012,09,16,10,11,9.00
2012,09,16,10,12,9.00
2012,09,16,10,13,9.10
2012,09,16,10,14,9.20
2012,09,16,10,15,9.30
2012,09,16,10,16,9.30
2012,09,16,10,17,9.40
2012,09,16,10,18,9.50
2012,09,16,10,19,9.50
2012,09,16,10,20,9.60
2012,09,16,10,21,9.60
2012,09,16,10,22,9.70
2012,09,16,10,23,9.80
2012,09,16,10,24,9.80
2012,09,16,10,25,9.90
2012,09,16,10,26,10.00
2012,09,16,10,27,10.10
2012,09,16,10,28,10.20
2012,09,16,10,29,10.30
2012,09,16,10,30,10.40
2012,09,16,10,31,10.60
2012,09,16,10,32,10.70
2012,09,16,10,33,10.90
2012,09,16,10,34,11.00
2012,09,16,10,35,11.20
2012,09,16,10,36,11.40
2012,09,16,10,37,11.50
2012,09,16,10,38,11.70
2012,09,16,10,39,11.80
2012,09,16,10,40,12.00
2012,09,16,10,41,12.20
2012,09,16,10,42,12.40
2012,09,16,10,43,12.50
2012,09,16,10,44,12.70
2012,09,16,10,45,12.90
2012,09,16,10,46,13.10
2012,09,16,10,47,13.20
2012,09,16,10,48,13.40
2012,09,16,10,49,13.50
2012,09,16,10,50,13.70
2012,09,16,10,51,13.70
2012,09,16,10,52,13.80
2012,09,16,10,53,13.90
2012,09,16,10,54,14.00
2012,09,16,10,55,14.00
2012,09,16,10,56,14.10
2012,09,16,10,57,14.20
2012,09,16,10,58,14.30
2012,09,16,10,59,14.40
2012,09,16,11,00,14.50
2012,09,16,11,01,14.60
2012,09,16,11,02,14.70
2012,09,16,11,03,14.80
2012,09,16,11,04,14.80
2012,09,16,11,05,15.00
2012,09,16,11,06,15.00
2012,09,16,11,07,15.20
2012,09,16,11,08,15.30
2012,09,16,11,09,15.40
2012,09,16,11,10,15.40
2012,09,16,11,11,15.50
2012,09,16,11,12,15.60
2012,09,16,11,13,15.70
2012,09,16,11,14,15.70
2012,09,16,11,15,15.80
2012,09,16,11,16,15.90
2012,09,16,11,17,16.00
2012,09,16,11,18,16.10
2012,09,16,11,19,16.20
2012,09,16,11,20,16.20
2012,09,16,11,21,16.30
2012,09,16,11,22,16.40
2012,09,16,11,23,16.40
2012,09,16,11,24,16.50
2012,09,16,11,25,16.50
2012,09,16,11,26,16.60
2012,09,16,11,27,16.60
2012,09,16,11,28,16.70
2012,09,16,11,29,16.70
2012,09,16,11,30,16.80
2012,09,16,11,31,16.80
2012,09,16,11,32,16.90
2012,09,16,11,33,16.90
2012,09,16,11,34,16.90
2012,09,16,11,35,17.00
2012,09,16,11,36,17.10
2012,09,16,11,37,17.10
2012,09,16,11,38,17.20
2012,09,16,11,39,17.30
2012,09,16,11,40,17.40
2012,09,16,11,41,17.50
2012,09,16,11,42,17.60
2012,09,16,11,43,17.70
2012,09,16,11,44,17.80
2012,09,16,11,45,17.90
2012,09,16,11,46,18.00
2012,09,16,11,47,18.10
2012,09,16,11,48,18.20
2012,09,16,11,49,18.20
2012,09,16,11,50,18.30
2012,09,16,11,51,18.30
2012,09,16,11,52,18.30
2012,09,16,11,53,18.30
2012,09,16,11,54,18.40
2012,09,16,11,55,18.50
2012,09,16,11,56,18.60
2012,09,16,11,57,18.70
2012,09,16,11,58,18.80
2012,09,16,11,59,18.80
2012,09,16,12,00,18.90
2012,09,16,12,01,18.90
2012,09,16,12,02,18.90
2012,09,16,12,03,18.90
2012,09,16,12,04,18.90
2012,09,16,12,05,19.00
2012,09,16,12,06,19.00
2012,09,16,12,07,19.10
2012,09,16,12,08,19.10
2012,09,16,12,09,19.00
2012,09,16,12,10,19.00
2012,09,16,12,11,19.00
2012,09,16,12,12,19.00
2012,09,16,12,13,19.00
2012,09,16,12,14,19.00
2012,09,16,12,15,19.00
2012,09,16,12,16,19.00
2012,09,16,12,17,19.00
2012,09,16,12,18,19.00
2012,09,16,12,19,19.10
2012,09,16,12,20,19.10
2012,09,16,12,21,19.20
2012,09,16,12,22,19.20
2012,09,16,12,23,19.30
2012,09,16,12,24,19.30
2012,09,16,12,25,19.30
2012,09,16,12,26,19.30
2012,09,16,12,27,19.30
2012,09,16,12,28,19.30
2012,09,16,12,29,19.40
2012,09,16,12,30,19.40
2012,09,16,12,31,19.40
2012,09,16,12,32,19.40
2012,09,16,12,33,19.40
2012,09,16,12,34,19.40
2012,09,16,12,35,19.40
2012,09,16,12,36,19.40
2012,09,16,12,37,19.40
2012,09,16,12,38,19.40
2012,09,16,12,39,19.40
2012,09,16,12,40,19.40
2012,09,16,12,41,19.40
2012,09,16,12,42,19.40
2012,09,16,12,43,19.40
2012,09,16,12,44,19.30
2012,09,16,12,45,19.30
2012,09,16,12,46,19.30
2012,09,16,12,47,19.30
2012,09,16,12,48,19.40
2012,09,16,12,49,19.40
2012,09,16,12,50,19.50
2012,09,16,12,51,19.60
2012,09,16,12,52,19.70
2012,09,16,12,53,19.70
2012,09,16,12,54,19.80
2012,09,16,12,55,19.80
2012,09,16,12,56,19.90
2012,09,16,12,57,20.00
2012,09,16,12,58,20.10
2012,09,16,12,59,20.20
2012,09,16,13,00,20.20
2012,09,16,13,01,20.30
2012,09,16,13,02,20.40
2012,09,16,13,03,20.50
2012,09,16,13,04,20.50
2012,09,16,13,05,20.60
2012,09,16,13,06,20.70
2012,09,16,13,07,20.80
2012,09,16,13,08,20.90
2012,09,16,13,09,21.00
2012,09,16,13,10,21.10
2012,09,16,13,11,21.20
2012,09,16,13,12,21.20
2012,09,16,13,13,21.30
2012,09,16,13,14,21.40
2012,09,16,13,15,21.40
2012,09,16,13,16,21.40
2012,09,16,13,17,21.40
2012,09,16,13,18,21.40
2012,09,16,13,19,21.40
2012,09,16,13,20,21.40
2012,09,16,13,21,21.40
2012,09,16,13,22,21.40
2012,09,16,13,23,21.40
2012,09,16,13,24,21.40
2012,09,16,13,25,21.40
2012,09,16,13,26,21.30
2012,09,16,13,27,21.30
2012,09,16,13,28,21.30
2012,09,16,13,29,21.30
2012,09,16,13,30,21.30
2012,09,16,13,31,21.30
2012,09,16,13,32,21.40
2012,09,16,13,33,21.40
2012,09,16,13,34,21.40
2012,09,16,13,35,21.40
2012,09,16,13,36,21.40
2012,09,16,13,37,21.40
2012,09,16,13,38,21.40
2012,09,16,13,39,21.50
2012,09,16,13,40,21.50
2012,09,16,13,41,21.60
2012,09,16,13,42,21.60
2012,09,16,13,43,21.70
2012,09,16,13,44,21.70
2012,09,16,13,45,21.70
2012,09,16,13,46,21.70
2012,09,16,13,47,21.70
2012,09,16,13,48,21.70
2012,09,16,13,49,21.70
2012,09,16,13,50,21.70
2012,09,16,13,51,21.70
2012,09,16,13,52,21.80
2012,09,16,13,53,21.80
2012,09,16,13,54,21.90
2012,09,16,13,55,22.00
2012,09,16,13,56,22.10
2012,09,16,13,57,22.10
2012,09,16,13,58,22.20
2012,09,16,13,59,22.20
2012,09,16,14,00,22.20
2012,09,16,14,01,22.20
2012,09,16,14,02,22.20
2012,09,16,14,03,22.20
2012,09,16,14,04,22.20
2012,09,16,14,05,22.30
2012,09,16,14,06,22.30
2012,09,16,14,07,22.30
2012,09,16,14,08,22.20
2012,09,16,14,09,22.10
2012,09,16,14,10,22.10
2012,09,16,14,11,22.00
2012,09,16,14,12,22.10
2012,09,16,14,13,22.10
2012,09,16,14,14,22.10
2012,09,16,14,15,22.00
2012,09,16,14,16,22.00
2012,09,16,14,17,22.00
2012,09,16,14,18,22.00
2012,09,16,14,19,22.00
2012,09,16,14,20,22.00
2012,09,16,14,21,22.00
2012,09,16,14,22,22.00
2012,09,16,14,23,22.00
2012,09,16,14,24,21.90
2012,09,16,14,25,21.90
2012,09,16,14,26,21.90
2012,09,16,14,27,21.90
2012,09,16,14,28,21.80
2012,09,16,14,29,21.80
2012,09,16,14,30,21.80
2012,09,16,14,31,21.80
2012,09,16,14,32,21.80
2012,09,16,14,33,21.80
2012,09,16,14,34,21.80
2012,09,16,14,35,21.80
2012,09,16,14,36,21.90
2012,09,16,14,37,22.00
2012,09,16,14,38,22.10
2012,09,16,14,39,22.20
2012,09,16,14,40,22.30
2012,09,16,14,41,22.30
2012,09,16,14,42,22.30
2012,09,16,14,43,22.30
2012,09,16,14,44,22.30
2012,09,16,14,45,22.30
2012,09,16,14,46,22.20
2012,09,16,14,47,22.10
2012,09,16,14,48,22.00
2012,09,16,14,49,21.80
2012,09,16,14,50,21.80
2012,09,16,14,51,21.70
2012,09,16,14,52,21.60
2012,09,16,14,53,21.50
2012,09,16,14,54,21.50
2012,09,16,14,55,21.40
2012,09,16,14,56,21.50
2012,09,16,14,57,21.60
2012,09,16,14,58,21.60
2012,09,16,14,59,21.70
2012,09,16,15,00,21.80
2012,09,16,15,01,21.90
2012,09,16,15,02,21.90
2012,09,16,15,03,22.00
2012,09,16,15,04,22.00
2012,09,16,15,05,22.00
2012,09,16,15,06,22.00
2012,09,16,15,07,22.00
2012,09,16,15,08,22.00
2012,09,16,15,09,22.00
2012,09,16,15,10,22.00
2012,09,16,15,11,22.10
2012,09,16,15,12,22.10
2012,09,16,15,13,22.20
2012,09,16,15,14,22.20
2012,09,16,15,15,22.30
2012,09,16,15,16,22.40
2012,09,16,15,17,22.40
2012,09,16,15,18,22.30
2012,09,16,15,19,22.20
2012,09,16,15,20,22.20
2012,09,16,15,21,22.10
2012,09,16,15,22,22.10
2012,09,16,15,23,22.00
2012,09,16,15,24,22.00
2012,09,16,15,25,21.90
2012,09,16,15,26,21.90
2012,09,16,15,27,21.90
2012,09,16,15,28,21.90
2012,09,16,15,29,21.90
2012,09,16,15,30,21.90
2012,09,16,15,31,21.90
2012,09,16,15,32,21.90
2012,09,16,15,33,21.80
2012,09,16,15,34,21.80
2012,09,16,15,35,21.80
2012,09,16,15,36,21.70
2012,09,16,15,37,21.70
2012,09,16,15,38,21.70
2012,09,16,15,39,21.70
2012,09,16,15,40,21.80
2012,09,16,15,41,21.80
2012,09,16,15,42,21.80
2012,09,16,15,43,21.80
2012,09,16,15,44,21.90
2012,09,16,15,45,21.90
2012,09,16,15,46,22.00
2012,09,16,15,47,22.00
2012,09,16,15,48,22.00
2012,09,16,15,49,22.00
2012,09,16,15,50,22.00
2012,09,16,15,51,22.00
2012,09,16,15,52,22.00
2012,09,16,15,53,22.00
2012,09,16,15,54,21.90
2012,09,16,15,55,21.90
2012,09,16,15,56,21.90
2012,09,16,15,57,21.90
2012,09,16,15,58,21.90
2012,09,16,15,59,21.90
2012,09,16,16,00,21.90
2012,09,16,16,01,21.90
2012,09,16,16,02,21.90
2012,09,16,16,03,21.90
2012,09,16,16,04,22.00
2012,09,16,16,05,22.00
2012,09,16,16,06,21.90
2012,09,16,16,07,21.90
2012,09,16,16,08,21.80
2012,09,16,16,09,21.80
2012,09,16,16,10,21.70
2012,09,16,16,11,21.70
2012,09,16,16,12,21.60
2012,09,16,16,13,21.70
2012,09,16,16,14,21.70
2012,09,16,16,15,21.70
2012,09,16,16,16,21.70
2012,09,16,16,17,21.70
2012,09,16,16,18,21.70
2012,09,16,16,19,21.70
2012,09,16,16,20,21.80
2012,09,16,16,21,21.80
2012,09,16,16,22,21.80
2012,09,16,16,23,21.80
2012,09,16,16,24,21.80
2012,09,16,16,25,21.90
2012,09,16,16,26,22.00
2012,09,16,16,27,22.10
2012,09,16,16,28,22.10
2012,09,16,16,29,22.20
2012,09,16,16,30,22.20
2012,09,16,16,31,22.20
2012,09,16,16,32,22.20
2012,09,16,16,33,22.20
2012,09,16,16,34,22.20
2012,09,16,16,35,22.20
2012,09,16,16,36,22.20
2012,09,16,16,37,22.10
2012,09,16,16,38,22.10
2012,09,16,16,39,22.10
2012,09,16,16,40,22.10
2012,09,16,16,41,22.10
2012,09,16,16,42,22.10
2012,09,16,16,43,22.10
2012,09,16,16,44,22.10
2012,09,16,16,45,22.10
2012,09,16,16,46,22.10
2012,09,16,16,47,22.10
2012,09,16,16,48,22.10
2012,09,16,16,49,22.10
2012,09,16,16,50,22.20
2012,09,16,16,51,22.20
2012,09,16,16,52,22.20
2012,09,16,16,53,22.20
2012,09,16,16,54,22.20
2012,09,16,16,55,22.20
2012,09,16,16,56,22.20
2012,09,16,16,57,22.20
2012,09,16,16,58,22.10
2012,09,16,16,59,22.10
2012,09,16,17,00,22.10
2012,09,16,17,01,22.10
2012,09,16,17,02,22.00
2012,09,16,17,03,22.00
2012,09,16,17,04,21.90
2012,09,16,17,05,21.90
2012,09,16,17,06,21.80
2012,09,16,17,07,21.70
2012,09,16,17,08,21.70
2012,09,16,17,09,21.60
2012,09,16,17,10,21.50
2012,09,16,17,11,21.50
2012,09,16,17,12,21.40
2012,09,16,17,13,21.40
2012,09,16,17,14,21.30
2012,09,16,17,15,21.30
2012,09,16,17,16,21.30
2012,09,16,17,17,21.30
2012,09,16,17,18,21.20
2012,09,16,17,19,21.20
2012,09,16,17,20,21.10
2012,09,16,17,21,21.10
2012,09,16,17,22,21.00
2012,09,16,17,23,21.00
2012,09,16,17,24,21.00
2012,09,16,17,25,20.90
2012,09,16,17,26,20.90
2012,09,16,17,27,20.90
2012,09,16,17,28,20.90
2012,09,16,17,29,20.90
2012,09,16,17,30,20.90
2012,09,16,17,31,20.90
2012,09,16,17,32,20.90
2012,09,16,17,33,20.90
2012,09,16,17,34,21.00
2012,09,16,17,35,21.00